Location: ????? ???????
(25.7275°N, 32.5929°E)
Time: 11:57:30
(UTC+00:00)

Cosmos 1470 Rocket - Pass Details

Date: 02 March 2021
Orbit: 603 x 634 km, 82.5° (Epoch: 15 April)

Event Time Altitude Azimuth Distance (km) Brightness Sun altitude
Rises 16:35:01 0° 183° (S) 2,914 7.1 -10.5°
Reaches altitude 10° 16:37:15 10° 182° (S) 2,009 6.2 -11.0°
Maximum altitude 16:41:42 83° 97° (E) 641 3.5 -12.0°
Drops below altitude 10° 16:46:11 10° 7° (N) 2,014 6.1 -13.0°
Sets 16:48:25 0° 7° (N) 2,921 6.9 -13.5°
